Time,TemperatureF,DewpointF,PressureIn,WindDirection,WindDirectionDegrees,WindSpeedMPH,WindSpeedGustMPH,Humidity,HourlyPrecipIn,Conditions,Clouds,dailyrainin,SoftwareType,DateUTC
2013-09-24 00:29:00,52.0,51.2,30.11,North,0,0.0,0.0,97,0.00,,CLR,0.00,VWS V14.01,2013-09-24 04:29:00,
2013-09-24 00:59:00,51.4,50.3,30.11,North,0,0.0,0.0,96,0.00,,CLR,0.00,VWS V14.01,2013-09-24 04:59:00,
2013-09-24 01:29:00,51.3,50.5,30.11,North,0,0.0,0.0,97,0.00,,OVC045,0.00,VWS V14.01,2013-09-24 05:29:00,
2013-09-24 01:59:00,51.6,50.8,30.12,North,0,0.0,0.0,97,0.00,,OVC045,0.00,VWS V14.01,2013-09-24 05:59:00,
2013-09-24 02:29:00,51.6,50.8,30.11,North,0,0.0,0.0,97,0.00,,OVC043,0.00,VWS V14.01,2013-09-24 06:29:00,
2013-09-24 02:59:00,51.9,51.4,30.11,North,0,0.0,0.0,98,0.00,,OVC043,0.00,VWS V14.01,2013-09-24 06:59:00,
2013-09-24 03:29:00,51.6,50.8,30.11,North,0,0.0,0.0,97,0.00,,OVC043,0.00,VWS V14.01,2013-09-24 07:29:00,
2013-09-24 03:59:00,51.0,50.2,30.11,North,0,0.0,0.0,97,0.00,,OVC043,0.00,VWS V14.01,2013-09-24 07:59:00,
2013-09-24 04:29:00,50.5,49.7,30.11,North,0,0.0,0.0,97,0.00,,,0.00,VWS V14.01,2013-09-24 08:29:00,
2013-09-24 04:59:00,50.5,50.0,30.11,North,0,0.0,0.0,98,0.00,,,0.00,VWS V14.01,2013-09-24 08:59:00,
2013-09-24 05:29:00,50.8,50.3,30.11,North,0,0.0,0.0,98,0.00,,,0.00,VWS V14.01,2013-09-24 09:29:00,
2013-09-24 05:59:00,51.1,50.8,30.11,North,0,0.0,0.0,99,0.00,,,0.00,VWS V14.01,2013-09-24 09:59:00,
2013-09-24 06:29:00,51.1,50.8,30.12,North,0,0.0,0.0,99,0.00,,OVC043,0.00,VWS V14.01,2013-09-24 10:29:00,
2013-09-24 06:59:00,51.3,51.0,30.13,North,0,0.0,0.0,99,0.00,,OVC043,0.00,VWS V14.01,2013-09-24 10:59:00,
2013-09-24 07:29:00,51.6,51.6,30.13,North,0,0.0,0.0,100,0.00,,OVC043,0.00,VWS V14.01,2013-09-24 11:29:00,
2013-09-24 07:59:00,52.3,52.3,30.13,North,0,0.0,0.0,100,0.00,,OVC043,0.00,VWS V14.01,2013-09-24 11:59:00,
2013-09-24 08:29:00,53.5,53.5,30.13,North,0,0.0,0.0,100,0.00,,OVC043,0.00,VWS V14.01,2013-09-24 12:29:00,
2013-09-24 08:59:00,54.8,54.5,30.13,North,359,0.0,0.0,99,0.00,,OVC043,0.00,VWS V14.01,2013-09-24 12:59:00,
2013-09-24 09:29:00,56.5,54.2,30.13,North,359,0.0,0.0,92,0.00,,OVC041,0.00,VWS V14.01,2013-09-24 13:29:00,
2013-09-24 09:59:00,58.9,53.8,30.12,North,359,0.0,0.0,83,0.00,,OVC041,0.00,VWS V14.01,2013-09-24 13:59:00,
2013-09-24 10:29:00,61.0,54.5,30.12,NW,312,0.0,0.0,79,0.00,,OVC039,0.00,VWS V14.01,2013-09-24 14:29:00,
2013-09-24 10:59:00,61.8,49.9,30.12,NW,306,0.0,0.0,65,0.00,,OVC039,0.00,VWS V14.01,2013-09-24 14:59:00,
2013-09-24 11:29:00,64.0,50.7,30.11,NW,309,0.0,0.0,62,0.00,,OVC039,0.00,VWS V14.01,2013-09-24 15:29:00,
2013-09-24 11:59:00,65.0,50.3,30.10,SW,220,0.0,0.0,59,0.00,,OVC039,0.00,VWS V14.01,2013-09-24 15:59:00,
2013-09-24 12:29:00,66.1,51.4,30.09,SW,236,0.0,0.0,59,0.00,,OVC037,0.00,VWS V14.01,2013-09-24 16:29:00,
2013-09-24 12:59:00,68.1,50.8,30.07,WSW,247,0.0,0.0,54,0.00,,OVC037,0.00,VWS V14.01,2013-09-24 16:59:00,
2013-09-24 13:29:00,69.1,52.3,30.05,SW,233,0.0,0.0,55,0.00,,CLR,0.00,VWS V14.01,2013-09-24 17:29:00,
2013-09-24 13:59:00,69.9,53.5,30.03,WSW,247,0.0,0.0,56,0.00,,CLR,0.00,VWS V14.01,2013-09-24 17:59:00,
2013-09-24 14:29:00,72.0,55.0,30.01,WSW,237,0.0,0.0,55,0.00,,CLR,0.00,VWS V14.01,2013-09-24 18:29:00,
2013-09-24 14:59:00,72.3,54.2,30.00,NNE,20,0.0,0.0,53,0.00,,CLR,0.00,VWS V14.01,2013-09-24 18:59:00,
2013-09-24 15:29:00,73.9,56.7,29.99,West,274,0.0,0.0,55,0.00,,CLR,0.00,VWS V14.01,2013-09-24 19:29:00,
2013-09-24 15:59:00,72.7,53.5,29.98,WNW,301,0.0,0.0,51,0.00,,CLR,0.00,VWS V14.01,2013-09-24 19:59:00,
2013-09-24 16:29:00,72.1,53.5,29.98,NW,315,0.0,0.0,52,0.00,,CLR,0.00,VWS V14.01,2013-09-24 20:29:00,
2013-09-24 16:59:00,70.8,53.3,29.98,ESE,107,0.0,0.0,54,0.00,,CLR,0.00,VWS V14.01,2013-09-24 20:59:00,
2013-09-24 17:29:00,69.6,56.5,29.98,SSE,147,0.0,0.0,63,0.00,,CLR,0.00,VWS V14.01,2013-09-24 21:29:00,
2013-09-24 17:59:00,67.6,57.9,29.98,SSE,147,0.0,0.0,71,0.00,,CLR,0.00,VWS V14.01,2013-09-24 21:59:00,
2013-09-24 18:29:00,66.1,59.0,29.97,SSE,147,0.0,0.0,78,0.00,,CLR,0.00,VWS V14.01,2013-09-24 22:29:00,
2013-09-24 18:59:00,63.7,57.8,29.97,SSE,147,0.0,0.0,81,0.00,,CLR,0.00,VWS V14.01,2013-09-24 22:59:00,
2013-09-24 19:29:00,60.7,56.5,29.97,SSE,147,0.0,0.0,86,0.00,,CLR,0.00,VWS V14.01,2013-09-24 23:29:00,
2013-09-24 19:59:00,59.6,56.0,29.97,SSE,147,0.0,0.0,88,0.00,,CLR,0.00,VWS V14.01,2013-09-24 23:59:00,
2013-09-24 20:29:00,58.4,55.5,29.98,SSE,147,0.0,0.0,90,0.00,,CLR,0.00,VWS V14.01,2013-09-25 00:29:00,
2013-09-24 20:59:00,57.5,54.9,29.99,SSE,147,0.0,0.0,91,0.00,,CLR,0.00,VWS V14.01,2013-09-25 00:59:00,
2013-09-24 21:29:00,56.3,54.0,29.99,SSE,147,0.0,0.0,92,0.00,,CLR,0.00,VWS V14.01,2013-09-25 01:29:00,
2013-09-24 21:59:00,55.3,53.3,29.99,SSE,147,0.0,0.0,93,0.00,,CLR,0.00,VWS V14.01,2013-09-25 01:59:00,
2013-09-24 22:29:00,54.5,52.8,29.99,SSE,147,0.0,0.0,94,0.00,,CLR,0.00,VWS V14.01,2013-09-25 02:29:00,
2013-09-24 22:59:00,53.9,52.5,29.99,SSE,147,0.0,0.0,95,0.00,,CLR,0.00,VWS V14.01,2013-09-25 02:59:00,
2013-09-24 23:29:00,53.1,52.0,29.99,SSE,147,0.0,0.0,96,0.00,,CLR,0.00,VWS V14.01,2013-09-25 03:29:00,
2013-09-24 23:59:00,52.5,51.4,29.99,SSE,147,0.0,0.0,96,0.00,,CLR,0.00,VWS V14.01,2013-09-25 03:59:00,